TimeEDT,TemperatureF,Dew PointF,Humidity,Sea Level PressureIn,VisibilityMPH,Wind Direction,Wind SpeedMPH,Gust SpeedMPH,PrecipitationIn,Events,Conditions,WindDirDegrees,DateUTC
12:15 AM,62.8,59.9,90,30.18,10.0,Calm,Calm,-,N/A,,Clear,0,2013-08-27 04:15:00
12:35 AM,62.6,59.9,91,30.18,10.0,Calm,Calm,-,N/A,,Clear,0,2013-08-27 04:35:00
12:55 AM,62.8,59.0,87,30.18,10.0,Calm,Calm,-,N/A,,Clear,0,2013-08-27 04:55:00
1:15 AM,63.1,58.8,86,30.17,10.0,Calm,Calm,-,N/A,,Clear,0,2013-08-27 05:15:00
1:35 AM,64.0,58.3,82,30.16,10.0,Calm,Calm,-,N/A,,Clear,0,2013-08-27 05:35:00
1:55 AM,65.3,58.1,77,30.16,10.0,Calm,Calm,-,N/A,,Clear,0,2013-08-27 05:55:00
2:15 AM,65.7,57.9,76,30.15,10.0,Calm,Calm,-,N/A,,Clear,0,2013-08-27 06:15:00
2:35 AM,65.5,57.6,76,30.15,10.0,Calm,Calm,-,N/A,,Clear,0,2013-08-27 06:35:00
2:55 AM,65.3,57.9,77,30.14,10.0,SSW,3.5,-,N/A,,Clear,200,2013-08-27 06:55:00
3:15 AM,65.3,58.1,77,30.14,10.0,SSW,3.5,-,N/A,,Clear,200,2013-08-27 07:15:00
3:35 AM,64.9,58.5,79,30.14,10.0,Calm,Calm,-,N/A,,Clear,0,2013-08-27 07:35:00
3:55 AM,64.6,59.0,82,30.14,10.0,Calm,Calm,-,N/A,,Clear,0,2013-08-27 07:55:00
4:15 AM,65.3,59.0,80,30.13,10.0,SSW,3.5,-,N/A,,Clear,200,2013-08-27 08:15:00
4:35 AM,65.3,59.0,80,30.13,10.0,Calm,Calm,-,N/A,,Clear,0,2013-08-27 08:35:00
4:55 AM,65.3,59.0,80,30.13,10.0,Calm,Calm,-,N/A,,Clear,0,2013-08-27 08:55:00
5:15 AM,64.8,59.0,82,30.12,10.0,Calm,Calm,-,N/A,,Clear,0,2013-08-27 09:15:00
5:35 AM,63.7,59.4,86,30.12,10.0,Calm,Calm,-,N/A,,Clear,0,2013-08-27 09:35:00
5:55 AM,62.1,59.9,93,30.12,10.0,Calm,Calm,-,N/A,,Clear,0,2013-08-27 09:55:00
6:15 AM,61.7,59.9,94,30.12,10.0,Calm,Calm,-,N/A,,Clear,0,2013-08-27 10:15:00
6:35 AM,62.1,60.1,93,30.12,10.0,Calm,Calm,-,N/A,,Clear,0,2013-08-27 10:35:00
6:55 AM,62.8,60.1,91,30.12,10.0,Calm,Calm,-,N/A,,Clear,0,2013-08-27 10:55:00
7:15 AM,64.4,60.3,86,30.12,10.0,Calm,Calm,-,N/A,,Clear,0,2013-08-27 11:15:00
7:35 AM,65.3,60.8,85,30.12,10.0,SSW,3.5,-,N/A,,Clear,210,2013-08-27 11:35:00
7:55 AM,63.5,61.3,93,30.13,10.0,Calm,Calm,-,N/A,,Clear,0,2013-08-27 11:55:00
8:15 AM,66.2,62.1,86,30.12,10.0,Calm,Calm,-,N/A,,Clear,0,2013-08-27 12:15:00
8:35 AM,67.1,62.4,85,30.12,10.0,Calm,Calm,-,N/A,,Clear,0,2013-08-27 12:35:00
8:55 AM,68.4,63.5,84,30.12,10.0,West,3.5,-,N/A,,Clear,270,2013-08-27 12:55:00
9:15 AM,69.4,63.9,82,30.12,10.0,Calm,Calm,-,N/A,,Clear,0,2013-08-27 13:15:00
9:35 AM,71.2,64.8,80,30.10,10.0,Calm,Calm,-,N/A,,Clear,0,2013-08-27 13:35:00
9:55 AM,72.1,64.9,78,30.11,10.0,Calm,Calm,-,N/A,,Clear,0,2013-08-27 13:55:00
10:15 AM,73.8,66.0,77,30.11,10.0,Calm,Calm,-,N/A,,Clear,0,2013-08-27 14:15:00
10:35 AM,75.0,66.7,75,30.11,10.0,Calm,Calm,-,N/A,,Clear,0,2013-08-27 14:35:00
10:55 AM,75.2,67.3,76,30.11,10.0,WNW,3.5,-,N/A,,Clear,290,2013-08-27 14:55:00
11:15 AM,75.9,68.0,76,30.11,10.0,Calm,Calm,-,N/A,,Clear,0,2013-08-27 15:15:00
11:35 AM,77.7,68.7,74,30.10,10.0,Calm,Calm,-,N/A,,Clear,0,2013-08-27 15:35:00
11:55 AM,79.7,68.9,69,30.09,10.0,WNW,3.5,-,N/A,,Clear,290,2013-08-27 15:55:00
12:15 PM,80.1,67.8,66,30.09,10.0,NNW,3.5,-,N/A,,Clear,330,2013-08-27 16:15:00
12:35 PM,81.5,68.2,64,30.09,10.0,West,6.9,-,N/A,,Clear,280,2013-08-27 16:35:00
12:55 PM,81.9,68.4,63,30.08,10.0,WNW,3.5,-,N/A,,Clear,300,2013-08-27 16:55:00
1:15 PM,81.9,68.4,63,30.08,10.0,NW,5.8,-,N/A,,Clear,320,2013-08-27 17:15:00
1:35 PM,82.8,68.7,62,30.08,10.0,West,4.6,-,N/A,,Clear,260,2013-08-27 17:35:00
1:55 PM,82.9,68.0,60,30.07,10.0,North,6.9,-,N/A,,Scattered Clouds,10,2013-08-27 17:55:00
2:15 PM,83.5,67.8,59,30.07,10.0,NW,3.5,-,N/A,,Scattered Clouds,320,2013-08-27 18:15:00
2:35 PM,83.7,68.4,60,30.07,10.0,Calm,Calm,-,N/A,,Clear,0,2013-08-27 18:35:00
2:55 PM,83.8,68.5,60,30.06,10.0,West,3.5,-,N/A,,Clear,280,2013-08-27 18:55:00
3:15 PM,83.5,68.7,61,30.05,10.0,West,3.5,-,N/A,,Clear,270,2013-08-27 19:15:00
3:35 PM,84.2,68.5,59,30.04,10.0,SW,3.5,-,N/A,,Scattered Clouds,230,2013-08-27 19:35:00
3:55 PM,83.8,69.4,62,30.04,10.0,Calm,Calm,-,N/A,,Mostly Cloudy,0,2013-08-27 19:55:00
4:15 PM,84.6,69.3,60,30.04,10.0,West,4.6,-,N/A,,Scattered Clouds,260,2013-08-27 20:15:00
4:35 PM,84.6,68.9,59,30.04,10.0,Calm,Calm,-,N/A,,Clear,0,2013-08-27 20:35:00
4:55 PM,84.6,68.5,58,30.04,10.0,Calm,Calm,-,N/A,,Clear,0,2013-08-27 20:55:00
5:15 PM,84.2,68.7,60,30.04,10.0,Calm,Calm,-,N/A,,Clear,0,2013-08-27 21:15:00
5:35 PM,84.2,69.3,61,30.04,10.0,West,3.5,-,N/A,,Scattered Clouds,260,2013-08-27 21:35:00
5:55 PM,83.8,71.1,65,30.04,10.0,Calm,Calm,-,N/A,,Scattered Clouds,0,2013-08-27 21:55:00
6:15 PM,82.8,72.3,71,30.04,10.0,Calm,Calm,-,N/A,,Clear,0,2013-08-27 22:15:00
6:35 PM,81.7,73.6,76,30.04,7.0,Calm,Calm,-,N/A,,Scattered Clouds,0,2013-08-27 22:35:00
6:55 PM,81.7,73.4,76,30.04,7.0,Calm,Calm,-,N/A,,Clear,0,2013-08-27 22:55:00
7:15 PM,80.8,72.9,77,30.04,7.0,Calm,Calm,-,N/A,,Clear,0,2013-08-27 23:15:00
7:35 PM,78.3,72.5,82,30.04,7.0,Calm,Calm,-,N/A,,Clear,0,2013-08-27 23:35:00
7:55 PM,76.6,72.5,87,30.04,7.0,Calm,Calm,-,N/A,,Clear,0,2013-08-27 23:55:00
8:15 PM,76.1,72.1,87,30.04,7.0,Calm,Calm,-,N/A,,Clear,0,2013-08-28 00:15:00
8:35 PM,75.4,72.1,90,30.04,7.0,Calm,Calm,-,N/A,,Clear,0,2013-08-28 00:35:00
8:55 PM,74.8,71.8,90,30.04,7.0,Calm,Calm,-,N/A,,Clear,0,2013-08-28 00:55:00
9:15 PM,74.5,71.6,91,30.04,7.0,Calm,Calm,-,N/A,,Clear,0,2013-08-28 01:15:00
9:35 PM,74.5,71.6,91,30.04,7.0,Calm,Calm,-,N/A,,Clear,0,2013-08-28 01:35:00
9:55 PM,73.4,70.9,92,30.04,7.0,Calm,Calm,-,N/A,,Clear,0,2013-08-28 01:55:00
10:15 PM,74.1,71.2,91,30.04,7.0,South,3.5,-,N/A,,Clear,190,2013-08-28 02:15:00
10:35 PM,73.4,70.9,92,30.05,7.0,Calm,Calm,-,N/A,,Clear,0,2013-08-28 02:35:00
10:55 PM,72.7,71.2,95,30.05,5.0,Calm,Calm,-,N/A,,Clear,0,2013-08-28 02:55:00
11:15 PM,72.7,71.1,95,30.06,5.0,Calm,Calm,-,N/A,,Clear,0,2013-08-28 03:15:00
11:35 PM,72.1,71.2,97,30.06,4.0,Calm,Calm,-,N/A,,Clear,0,2013-08-28 03:35:00
11:55 PM,72.5,71.1,95,30.06,5.0,Calm,Calm,-,N/A,,Clear,0,2013-08-28 03:55:00